Rotterdam, Netherlands

5:57 PM CEST on June 27, 2017 (GMT +0200)
Rotterdam

Weather History for EHRD - September, 2013

Change the Weather History Date:

Sunday, September 8, 2013

  Actual Average Record
Temperature  
Mean Temperature 59 °F -  
Max Temperature 65 °F 62 °F 81 °F (2016)
Min Temperature 53 °F 49 °F 41 °F (1996)
Degree Days  
Heating Degree Days 6    
Growing Degree Days 9 (Base 50)    
Moisture  
Dew Point 53 °F    
Average Humidity 84    
Maximum Humidity 100    
Minimum Humidity 58    
Precipitation  
Precipitation 0.67 in - - ()
Sea Level Pressure  
Sea Level Pressure 30.07 in    
Wind  
Wind Speed 3 mph ()    
Max Wind Speed 13 mph    
Max Gust Speed -    
Visibility 6.7 miles    
Events Rain , Hail , Thunderstorm    
Averages and records for this station are not official NWS values.
T = Trace of Precipitation, MM = Missing Value Source: Averaged Metar Reports

Daily Weather History Graph

Daily Weather History Graph

Search for Another Location

Airport or City:

Trip Planner

Search our weather history database for the weather conditions in past years. The results will help you decide how hot, cold, wet, or windy it might be!

Date:

Astronomy

Sep. 08, 2013 Rise Set
Actual Time 7:05 AM CEST 8:13 PM CEST
Civil Twilight 6:30 AM CEST 8:47 PM CEST
Nautical Twilight 5:49 AM CEST 9:29 PM CEST
Astronomical Twilight 5:03 AM CEST 10:14 PM CEST
Moon 10:35 AM CEST (9/8) 9:06 PM CEST (9/8)
Length of Visible Light 14h 16m
Length of Day
13h 07m
Waxing Crescent, 9% of the Moon is Illuminated
Sep 8
Waxing Crescent
Sep 12
First Quarter
Sep 19
Full
Sep 27
Last Quarter
Oct 5
New

Hourly Weather History & Observations

Time (CEST) Temp. Dew Point Humidity Pressure Visibility Wind Dir Wind Speed Gust Speed Precip Events Conditions
12:25 AM 57.2 °F 50.0 °F 77% 30.06 in 6.2 mi West 2.3 mph - N/A   Unknown
12:55 AM 57.2 °F 50.0 °F 77% 30.06 in 6.2 mi Calm Calm - N/A   Unknown
1:25 AM 55.4 °F 51.8 °F 88% 30.09 in 6.2 mi Variable 1.2 mph - N/A   Unknown
1:55 AM 57.2 °F 50.0 °F 77% 30.09 in 6.2 mi North 2.3 mph - N/A   Unknown
2:00 AM 57 °F 50 °F 72% 30.10 in 22 mi Calm Calm - -   Partly Cloudy
2:25 AM 57.2 °F 51.8 °F 82% 30.06 in 6.2 mi Calm Calm - N/A   Unknown
2:55 AM 57.2 °F 51.8 °F 82% 30.06 in 6.2 mi NW 2.3 mph - N/A   Unknown
3:25 AM 57.2 °F 53.6 °F 88% 30.06 in 6.2 mi NW 2.3 mph - N/A   Unknown
3:55 AM 57.2 °F 53.6 °F 88% 30.06 in 6.2 mi NNW 1.2 mph - N/A   Unknown
4:25 AM 57.2 °F 53.6 °F 88% 30.06 in 6.2 mi NNE 1.2 mph - N/A Rain Light Rain
4:55 AM 57.2 °F 53.6 °F 88% 30.06 in 6.2 mi Calm Calm - N/A Rain Light Rain Showers
5:25 AM 57.2 °F 53.6 °F 88% 30.06 in 6.2 mi Variable 2.3 mph - N/A Rain Light Rain Showers
5:55 AM 57.2 °F 55.4 °F 94% 30.04 in 6.2 mi NNW 2.3 mph - N/A Rain Light Rain Showers
6:25 AM 57.2 °F 55.4 °F 94% 30.04 in 6.2 mi NNE 3.5 mph - N/A Rain Light Rain
6:55 AM 55.4 °F 55.4 °F 100% 30.06 in 5.6 mi Variable 2.3 mph - N/A Rain Light Rain
7:25 AM 55.4 °F 55.4 °F 100% 30.06 in 5.0 mi Variable 1.2 mph - N/A Rain Light Rain
7:55 AM 55.4 °F 55.4 °F 100% 30.06 in 5.0 mi Variable 2.3 mph - N/A Rain Light Rain Showers
8:25 AM 55.4 °F 55.4 °F 100% 30.06 in 6.2 mi NNE 3.5 mph - N/A Rain Light Rain
8:55 AM 57.2 °F 55.4 °F 94% 30.06 in 6.2 mi ENE 5.8 mph - N/A   Unknown
9:25 AM 57.2 °F 55.4 °F 94% 30.06 in 6.2 mi ENE 8.1 mph - N/A   Unknown
9:55 AM 59.0 °F 55.4 °F 88% 30.06 in 6.2 mi East 5.8 mph - N/A   Unknown
10:25 AM 60.8 °F 55.4 °F 82% 30.06 in 6.2 mi East 5.8 mph - N/A   Unknown
10:55 AM 60.8 °F 53.6 °F 77% 30.06 in 6.2 mi ESE 4.6 mph - N/A   Unknown
11:00 AM 60 °F 54 °F 73% 30.09 in 18 mi ESE 4.5 mph - -   Partly Cloudy
11:25 AM 60.8 °F 53.6 °F 77% 30.06 in 6.2 mi SSE 3.5 mph - N/A   Scattered Clouds
11:55 AM 60.8 °F 53.6 °F 77% 30.06 in 6.2 mi South 4.6 mph - N/A   Mostly Cloudy
12:25 PM 59.0 °F 53.6 °F 82% 30.09 in 6.2 mi South 5.8 mph - N/A Rain Light Rain
12:55 PM 60.8 °F 55.4 °F 82% 30.09 in 6.2 mi East 4.6 mph - N/A   Mostly Cloudy
1:25 PM 57.2 °F 55.4 °F 94% 30.09 in - NNW 6.9 mph - N/A Rain , Hail Hail Showers
1:55 PM 55.4 °F 55.4 °F 100% 30.09 in 6.2 mi Variable 2.3 mph - N/A Rain Light Rain
2:00 PM 56 °F 55 °F 94% 30.11 in 10 mi North 2.2 mph - - Rain Light Rain Showers
2:25 PM 59.0 °F 55.4 °F 88% 30.09 in 6.2 mi Variable 2.3 mph - N/A   Partly Cloudy
2:55 PM 62.6 °F 55.4 °F 77% 30.09 in 6.2 mi ESE 3.5 mph - N/A   Partly Cloudy
3:25 PM 62.6 °F 53.6 °F 72% 30.09 in 6.2 mi ESE 3.5 mph - N/A   Unknown
3:55 PM 64.4 °F 55.4 °F 73% 30.09 in 6.2 mi Variable 2.3 mph - N/A   Unknown
4:25 PM 66.2 °F 51.8 °F 60% 30.09 in 6.2 mi Variable 2.3 mph - N/A   Partly Cloudy
4:55 PM 64.4 °F 53.6 °F 68% 30.09 in 6.2 mi ESE 3.5 mph - N/A   Mostly Cloudy
5:00 PM 64 °F 53 °F 58% 30.10 in 19 mi ENE 2.2 mph - -   Scattered Clouds
5:25 PM 62.6 °F 53.6 °F 72% 30.06 in 6.2 mi NE 5.8 mph - N/A   Partly Cloudy
5:55 PM 62.6 °F 53.6 °F 72% 30.06 in 6.2 mi ENE 6.9 mph - N/A   Scattered Clouds
6:25 PM 62.6 °F 53.6 °F 72% 30.06 in 6.2 mi East 8.1 mph - N/A   Unknown
6:55 PM 62.6 °F 53.6 °F 72% 30.06 in 6.2 mi East 8.1 mph - N/A   Unknown
7:25 PM 62.6 °F 55.4 °F 77% 30.06 in 6.2 mi East 8.1 mph - N/A Thunderstorm Thunderstorm
7:55 PM 55.4 °F 50.0 °F 82% 30.06 in 6.2 mi West 12.7 mph - N/A Rain , Thunderstorm Light Thunderstorms and Rain
8:00 PM 55 °F 50 °F 76% 30.09 in 22 mi West 13.4 mph - - Rain , Thunderstorm Light Thunderstorms and Rain
8:25 PM 55.4 °F 51.8 °F 88% 30.06 in 6.2 mi WNW 8.1 mph - N/A Rain , Thunderstorm Heavy Thunderstorms and Rain
8:55 PM 53.6 °F 51.8 °F 94% 30.06 in 6.2 mi ENE 4.6 mph - N/A   Mostly Cloudy
9:25 PM 53.6 °F 53.6 °F 100% 30.09 in 6.2 mi NE 3.5 mph - N/A   Overcast
9:55 PM 55.4 °F 53.6 °F 94% 30.09 in 6.2 mi Variable 2.3 mph - N/A   Mostly Cloudy
10:25 PM 53.6 °F 53.6 °F 100% 30.09 in 6.2 mi SSW 3.5 mph - N/A   Overcast
10:55 PM 55.4 °F 50.0 °F 82% 30.09 in 6.2 mi West 10.4 mph - N/A   Mostly Cloudy
11:00 PM 55 °F 50 °F 79% 30.10 in 28 mi West 6.7 mph - - Rain Rain
11:25 PM 53.6 °F 50.0 °F 88% 30.09 in 6.2 mi WSW 4.6 mph - N/A   Light Drizzle
11:55 PM 55.4 °F 51.8 °F 88% 30.09 in 6.2 mi SE 6.9 mph - N/A Rain Light Rain Showers